[[{"header":{"parameterUnit":"m.s-1","parameterCategory":2,"la1":30.2992,"la2":30.254,"lo1":-89.0895,"lo2":-89.0443,"dy":0.0025,"dx":0.0025,"nx":19,"ny":19,"refTime":"2026-05-13T21:00:00:Z","depth":"0","parameterNumber":2,"parameterNumberName":"U-component_of_CURRENTS"},"data":[0,0,0,0.3731,0.3732,0.3793,0.3793,0.394,0.3941,0,0,0,0,0,0,0,0,0,0,0,0.3707,0.3707,0.3731,0.3733,0.3793,0.3793,0.394,0.3941,0,0,0,0,0,0,0,0,0,0,0,0.3707,0.3707,0.3708,0.3733,0.3793,0.3793,0.3939,0.3876,0,0,0,0,0,0,0,0,0,0,0.3808,0.3769,0.3707,0.3708,0.3733,0.3793,0.3793,0.3872,0.388,0.3933,0,0.3941,0,0.395,0.3953,0.3953,0,0,0,0.3731,0.3762,0.3788,0.3708,0.3734,0.3793,0.3765,0.3876,0.3885,0.3943,0.3943,0.3948,0.3952,0.3954,0.3955,0.4177,0.4178,0,0,0.3728,0.3712,0.3781,0.3793,0.375,0.3763,0.3767,0.3881,0.3887,0.3943,0.3951,0.3954,0.3955,0.3956,0.4176,0.4177,0,0,0,0.3719,0.371,0.3731,0.3788,0.3796,0.3765,0.377,0.3881,0.3891,0.3953,0.3956,0.3956,0.3958,0.4174,0.4176,0.4098,0,0,0,0.3717,0.3705,0.373,0.372,0.3793,0.3829,0.3768,0.3883,0.3896,0.3955,0.3956,0.396,0.4173,0.4175,0.4097,0.4063,0,0,0,0.3704,0.3704,0.3712,0.372,0.3748,0.3827,0.3842,0.3885,0.3899,0.3954,0.396,0.4172,0.4175,0.4096,0.4064,0.4056,0,0,0,0.3684,0.3686,0.3712,0.3726,0.3747,0.3819,0.3841,0.3902,0.395,0.3957,0.4173,0.4176,0.4096,0.4064,0.4056,0.386,0.3843,0,0,0.3673,0.3684,0.3695,0.372,0.3763,0.3811,0.3877,0.3945,0.4014,0.4138,0.4142,0.4097,0.4064,0.4056,0.4018,0.3995,0,0,0,0.3683,0.3695,0.3716,0.3745,0.3802,0.3849,0.3931,0.3976,0.4075,0.4056,0.4175,0.4159,0.4154,0.404,0.4024,0.3832,0.4189,0.4188,0.4188,0.3626,0.3668,0.3686,0.3749,0.3798,0.3897,0.3947,0.404,0.4102,0.4147,0.4151,0.4173,0.4053,0.4038,0.3844,0.4219,0.4219,0.4218,0.4218,0.3607,0.3591,0.3664,0.3698,0.3759,0.3825,0.3957,0.401,0.4118,0.4159,0.4159,0.4035,0.4014,0.3815,0.4215,0.4215,0.4216,0.4216,0.4216,0.3524,0.3516,0.3568,0.3612,0.3654,0.3759,0.3807,0.3942,0.405,0.4076,0.3982,0.3981,0.3754,0.4082,0.4082,0.4081,0.4081,0.4081,0.4081,0.3389,0.3442,0.3448,0.3516,0.3527,0.3579,0.3726,0.3786,0.3856,0.3904,0.3903,0.3741,0.4132,0.4077,0.4079,0.4079,0.4079,0.408,0.408,0.3276,0.3299,0.3309,0.3326,0.3372,0.333,0.3505,0.355,0.3633,0.3622,0.3455,0.3816,0.3823,0.3835,0.3777,0.3701,0.3701,0.3701,0.3701,0.3172,0.3193,0.3183,0.3188,0.319,0.322,0.3115,0.3157,0.3188,0.3115,0.3194,0.3137,0.3161,0.3129,0.3158,0.3087,0.2838,0.2837,0.2836,0.3116,0.3125,0.3076,0.3097,0.3104,0.3057,0.2852,0.2665,0.2679,0.2791,0.2965,0.3001,0.2916,0.2969,0.2925,0.298,0.287,0,0]},{"header":{"parameterUnit":"m.s-1","parameterCategory":2,"la1":30.2992,"la2":30.254,"lo1":-89.0895,"lo2":-89.0443,"dy":0.0025,"dx":0.0025,"nx":19,"ny":19,"refTime":"2026-05-13T21:00:00:Z","depth":"0","parameterNumber":3,"parameterNumberName":"V-component_of_CURRENTS"},"data":[0,0,0,0.01,0.0101,0.0126,0.0126,0.0161,0.0161,0,0,0,0,0,0,0,0,0,0,0,0.0087,0.0087,0.01,0.0101,0.0126,0.0126,0.0161,0.0161,0,0,0,0,0,0,0,0,0,0,0,0.0087,0.0087,0.0088,0.0101,0.0126,0.0126,0.0161,0.0139,0,0,0,0,0,0,0,0,0,0,0.0114,0.0102,0.0087,0.0088,0.0102,0.0126,0.0126,0.0138,0.0141,0.0153,0,0.016,0,0.0168,0.0164,0.0164,0,0,0,0.0093,0.01,0.0111,0.0088,0.0102,0.0126,0.0113,0.0139,0.0142,0.0156,0.016,0.0162,0.0168,0.0165,0.0165,0.0288,0.0289,0,0,0.0092,0.0087,0.0109,0.0113,0.0113,0.0112,0.0113,0.0141,0.0143,0.016,0.0163,0.0169,0.0165,0.0165,0.0287,0.0288,0,0,0,0.0093,0.0086,0.0096,0.0112,0.012,0.0113,0.0115,0.0142,0.0147,0.0163,0.0169,0.0165,0.0166,0.0286,0.0288,0.0391,0,0,0,0.0092,0.0088,0.0096,0.0092,0.0119,0.0131,0.0115,0.0144,0.0148,0.0169,0.0165,0.0166,0.0285,0.0287,0.0386,0.045,0,0,0,0.0085,0.0087,0.0092,0.0092,0.0108,0.0131,0.0136,0.0145,0.0152,0.0165,0.0166,0.0284,0.0287,0.0381,0.0442,0.0546,0,0,0,0.0076,0.011,0.0092,0.0135,0.0108,0.0169,0.0136,0.0171,0.0187,0.0165,0.0285,0.0287,0.0379,0.0436,0.054,0.06,0.0632,0,0,0.0121,0.0115,0.0144,0.0129,0.0204,0.0164,0.0254,0.025,0.0229,0.0272,0.0275,0.0387,0.0441,0.0545,0.0737,0.0765,0,0,0,0.016,0.0182,0.0201,0.0236,0.0263,0.0317,0.0305,0.0322,0.0369,0.0251,0.0407,0.0438,0.05,0.0524,0.0547,0.0462,0.0298,0.0298,0.0298,0.0214,0.0237,0.0305,0.0344,0.0384,0.0425,0.0479,0.0503,0.045,0.0498,0.0536,0.0706,0.0733,0.0751,0.0662,0.0541,0.0541,0.0542,0.0542,0.0302,0.0355,0.039,0.0464,0.0518,0.0589,0.0665,0.0657,0.0756,0.0668,0.0723,0.0648,0.0782,0.0678,0.0549,0.0548,0.0547,0.0546,0.0546,0.035,0.0386,0.042,0.0532,0.0642,0.0703,0.0862,0.0874,0.0873,0.0931,0.0953,0.0951,0.0849,0.0953,0.0954,0.0955,0.0955,0.0956,0.0956,0.0388,0.0431,0.0512,0.0615,0.0704,0.0844,0.098,0.1068,0.1128,0.11,0.1099,0.0913,0.0832,0.0804,0.0968,0.0966,0.0965,0.0963,0.0963,0.0465,0.0472,0.0593,0.0678,0.0883,0.1072,0.1176,0.1355,0.1406,0.1452,0.1195,0.1193,0.1174,0.1154,0.1135,0.1375,0.1375,0.1375,0.1375,0.0508,0.0523,0.0683,0.0827,0.1021,0.1184,0.1468,0.1588,0.1506,0.1414,0.1316,0.1203,0.119,0.1163,0.1143,0.1119,0.135,0.1349,0.1349,0.0564,0.0604,0.0728,0.0862,0.1081,0.1323,0.1598,0.1761,0.1553,0.1334,0.1192,0.1193,0.1006,0.0992,0.0921,0.09,0.0849,0,0]}],[{"header":{"parameterUnit":"m.s-1","parameterCategory":2,"la1":30.2992,"la2":30.254,"lo1":-89.0895,"lo2":-89.0443,"dy":0.0025,"dx":0.0025,"nx":19,"ny":19,"refTime":"2026-05-13T21:00:00:Z","depth":"2","parameterNumber":2,"parameterNumberName":"U-component_of_CURRENTS"},"data":[0,0,0,0.2466,0.2468,0.2557,0.2557,0.2672,0.2673,0,0,0,0,0,0,0,0,0,0,0,0.2445,0.2447,0.2465,0.2468,0.2557,0.2557,0.2672,0.2673,0,0,0,0,0,0,0,0,0,0,0,0.2445,0.2446,0.2448,0.2469,0.2557,0.2557,0.2671,0.2601,0,0,0,0,0,0,0,0,0,0,0.2513,0.2475,0.2446,0.2448,0.2469,0.2557,0.2557,0.2597,0.2605,0.2637,0,0.2674,0,0.268,0.2682,0.2683,0,0,0,0.2453,0.2469,0.2519,0.2448,0.247,0.2557,0.2513,0.2601,0.261,0.2647,0.2675,0.2679,0.2682,0.2683,0.2684,0.2831,0.2832,0,0,0.2448,0.2431,0.2513,0.2526,0.2525,0.251,0.2516,0.2607,0.2614,0.2676,0.2682,0.2684,0.2684,0.2685,0.2831,0.2831,0,0,0,0.2444,0.2428,0.2475,0.2521,0.254,0.2513,0.2519,0.261,0.2634,0.2683,0.2685,0.2685,0.2686,0.283,0.2831,0.2837,0,0,0,0.2441,0.2427,0.2473,0.2459,0.2539,0.257,0.252,0.2628,0.2638,0.2685,0.2685,0.2688,0.2829,0.283,0.2836,0.2832,0,0,0,0.2436,0.2425,0.2451,0.2459,0.2506,0.2569,0.2596,0.263,0.264,0.2683,0.2688,0.2829,0.283,0.2834,0.283,0.282,0,0,0,0.2391,0.2407,0.2451,0.2472,0.2506,0.2575,0.2595,0.2603,0.2629,0.2686,0.2829,0.2831,0.2834,0.2829,0.282,0.2671,0.2662,0,0,0.2376,0.2405,0.2417,0.2459,0.2512,0.2559,0.2621,0.2637,0.2673,0.2795,0.2799,0.2836,0.283,0.282,0.2753,0.2742,0,0,0,0.2388,0.2419,0.2437,0.2489,0.2543,0.2596,0.2646,0.2686,0.276,0.2703,0.2864,0.286,0.2853,0.2763,0.2755,0.2837,0.2837,0.2837,0.2837,0.2375,0.2412,0.2427,0.2493,0.2548,0.2627,0.2679,0.2759,0.2795,0.2823,0.2885,0.2911,0.2817,0.2809,0.2913,0.2913,0.2913,0.2913,0.2913,0.2345,0.234,0.2415,0.2441,0.2527,0.2614,0.275,0.2785,0.2908,0.2921,0.2914,0.28,0.28,0.2914,0.2914,0.2914,0.2914,0.2914,0.2914,0.2311,0.2297,0.2329,0.2374,0.2465,0.2592,0.2684,0.2804,0.2899,0.2929,0.2814,0.2812,0.2887,0.2919,0.2919,0.2919,0.2919,0.2919,0.2919,0.2217,0.2241,0.2252,0.2315,0.2369,0.2475,0.2649,0.272,0.2774,0.2809,0.2808,0.2913,0.2912,0.2888,0.2919,0.2919,0.2919,0.2919,0.2919,0.2138,0.2169,0.2157,0.2191,0.2273,0.2268,0.245,0.2509,0.2601,0.2588,0.2733,0.2738,0.2715,0.272,0.2691,0.2669,0.2669,0.2669,0.2669,0.2089,0.2103,0.207,0.2072,0.2104,0.2155,0.2095,0.2161,0.2328,0.2371,0.2384,0.2341,0.2358,0.2313,0.2328,0.2291,0.2164,0.2164,0.2163,0.2038,0.2026,0.1985,0.198,0.2006,0.1977,0.1843,0.1747,0.1874,0.2143,0.2303,0.2634,0.2606,0.2618,0.2579,0.2591,0.2543,0,0]},{"header":{"parameterUnit":"m.s-1","parameterCategory":2,"la1":30.2992,"la2":30.254,"lo1":-89.0895,"lo2":-89.0443,"dy":0.0025,"dx":0.0025,"nx":19,"ny":19,"refTime":"2026-05-13T21:00:00:Z","depth":"2","parameterNumber":3,"parameterNumberName":"V-component_of_CURRENTS"},"data":[0,0,0,0.033,0.033,0.0344,0.0344,0.0356,0.0356,0,0,0,0,0,0,0,0,0,0,0,0.0325,0.0326,0.033,0.033,0.0344,0.0344,0.0356,0.0356,0,0,0,0,0,0,0,0,0,0,0,0.0325,0.0326,0.0326,0.0331,0.0344,0.0344,0.0356,0.0347,0,0,0,0,0,0,0,0,0,0,0.0334,0.0333,0.0325,0.0326,0.0331,0.0344,0.0344,0.0346,0.0347,0.0348,0,0.0352,0,0.0354,0.0356,0.0357,0,0,0,0.0329,0.0333,0.0334,0.0326,0.0331,0.0344,0.0338,0.0347,0.0348,0.0349,0.0352,0.0352,0.0354,0.0357,0.0357,0.0433,0.0434,0,0,0.0329,0.033,0.0333,0.0335,0.0336,0.0337,0.0338,0.0347,0.0351,0.0352,0.0352,0.0355,0.0357,0.0357,0.0432,0.0433,0,0,0,0.0327,0.0329,0.0331,0.0334,0.0337,0.0338,0.0339,0.035,0.035,0.0353,0.0355,0.0357,0.0357,0.0431,0.0432,0.051,0,0,0,0.0327,0.0329,0.033,0.0331,0.0337,0.0346,0.0341,0.0349,0.0351,0.0355,0.0357,0.0357,0.043,0.0432,0.0506,0.0562,0,0,0,0.0324,0.0328,0.033,0.0331,0.0338,0.0346,0.0346,0.035,0.0352,0.0357,0.0357,0.043,0.0432,0.0503,0.0555,0.0591,0,0,0,0.0325,0.035,0.033,0.0366,0.0338,0.0385,0.0346,0.0376,0.0386,0.0357,0.0431,0.0432,0.0501,0.0551,0.0587,0.06,0.0619,0,0,0.0361,0.0354,0.0379,0.0362,0.042,0.0383,0.0452,0.044,0.0413,0.0424,0.0426,0.0507,0.0555,0.059,0.0704,0.0719,0,0,0,0.0394,0.0416,0.043,0.0457,0.0472,0.0507,0.0492,0.0489,0.0505,0.0427,0.0522,0.0551,0.0569,0.057,0.0583,0.0441,0.0441,0.044,0.044,0.044,0.046,0.0516,0.0547,0.0576,0.0596,0.0624,0.062,0.0573,0.0596,0.0624,0.0722,0.0724,0.0734,0.0623,0.0623,0.0624,0.0624,0.0624,0.0519,0.0558,0.0589,0.0652,0.0679,0.0732,0.076,0.0741,0.0774,0.0716,0.073,0.0665,0.0752,0.0631,0.0629,0.0629,0.0628,0.0627,0.0627,0.0556,0.0581,0.062,0.0712,0.0791,0.0828,0.0925,0.0909,0.0865,0.0891,0.0858,0.0856,0.0762,0.0882,0.0882,0.0882,0.0883,0.0883,0.0883,0.0573,0.0618,0.069,0.0782,0.0856,0.0956,0.1024,0.105,0.1021,0.0968,0.0967,0.0809,0.08,0.0778,0.089,0.0889,0.0888,0.0887,0.0887,0.0627,0.0639,0.0754,0.0831,0.1004,0.1134,0.1177,0.1207,0.1193,0.1174,0.0999,0.0994,0.097,0.0958,0.0939,0.1087,0.1087,0.1087,0.1087,0.065,0.0667,0.0818,0.0952,0.1111,0.1222,0.1344,0.1321,0.1217,0.1122,0.112,0.106,0.1052,0.1027,0.1014,0.0994,0.1156,0.1156,0.1156,0.0692,0.0733,0.0842,0.0972,0.1163,0.1314,0.141,0.1354,0.1176,0.1157,0.1115,0.1095,0.0999,0.0989,0.0938,0.0922,0.0885,0,0]}],[{"header":{"parameterUnit":"m.s-1","parameterCategory":2,"la1":30.2992,"la2":30.254,"lo1":-89.0895,"lo2":-89.0443,"dy":0.0025,"dx":0.0025,"nx":19,"ny":19,"refTime":"2026-05-13T21:00:00:Z","depth":"4","parameterNumber":2,"parameterNumberName":"U-component_of_CURRENTS"},"data":[0,0,0,0.1331,0.1333,0.1428,0.1428,0.1483,0.1483,0,0,0,0,0,0,0,0,0,0,0,0.1296,0.1297,0.133,0.1333,0.1428,0.1428,0.1483,0.1483,0,0,0,0,0,0,0,0,0,0,0,0.1295,0.1296,0.1298,0.1334,0.1428,0.1428,0.1482,0.1424,0,0,0,0,0,0,0,0,0,0,0.1339,0.1329,0.1296,0.1298,0.1334,0.1428,0.1428,0.1422,0.1428,0.1425,0,0.1453,0,0.1476,0.1486,0.1487,0,0,0,0.132,0.1325,0.1346,0.1298,0.1335,0.1427,0.1381,0.1426,0.1432,0.1432,0.1454,0.1457,0.1477,0.1487,0.1487,0.1597,0.1598,0,0,0.1315,0.1313,0.1342,0.1351,0.1377,0.1378,0.1384,0.143,0.1445,0.1454,0.1459,0.1478,0.1487,0.1488,0.1596,0.1597,0,0,0,0.1309,0.1309,0.1331,0.1348,0.1374,0.1381,0.1388,0.1443,0.145,0.1459,0.1478,0.1487,0.1488,0.1595,0.1596,0.164,0,0,0,0.1305,0.1307,0.1329,0.1328,0.1374,0.1422,0.14,0.1446,0.1453,0.1478,0.1487,0.1489,0.1594,0.1596,0.1637,0.1627,0,0,0,0.1288,0.1305,0.132,0.1328,0.1375,0.1422,0.1431,0.1448,0.1464,0.1487,0.1489,0.1594,0.1596,0.1634,0.1624,0.1677,0,0,0,0.1276,0.1287,0.1321,0.1342,0.1374,0.1412,0.1431,0.1477,0.1499,0.1488,0.1594,0.1596,0.1633,0.1622,0.1674,0.1446,0,0,0,0.127,0.1287,0.1295,0.1327,0.1368,0.1397,0.1453,0.1503,0.1529,0.157,0.1573,0.1638,0.1624,0.1677,0.1564,0,0,0,0,0.1279,0.1293,0.1307,0.1351,0.1385,0.1453,0.15,0.1532,0.1618,0.1556,0.1666,0.1655,0.1687,0.1548,0.1606,0.1606,0.1605,0.1605,0.1605,0.1283,0.1301,0.132,0.1363,0.1408,0.1499,0.1551,0.1616,0.1633,0.17,0.1713,0.1808,0.1665,0.1753,0.1753,0.1753,0.1753,0.1753,0.1754,0.1268,0.1268,0.1328,0.1355,0.1444,0.1516,0.1627,0.1681,0.1777,0.1773,0.1804,0.163,0.1759,0.1758,0.1757,0.1756,0.1756,0.1755,0.1755,0.1247,0.1243,0.1284,0.1344,0.1446,0.1555,0.1643,0.1743,0.1817,0.1855,0.1738,0.1842,0.1813,0.19,0.19,0.1901,0.1901,0.1901,0.1901,0.1198,0.123,0.1257,0.1336,0.1393,0.1511,0.1671,0.172,0.1819,0.1751,0.1884,0.1857,0.1852,0.1823,0.1905,0.1904,0.1903,0.1903,0.1903,0.1134,0.1181,0.1197,0.1241,0.1344,0.1406,0.1584,0.1636,0.1679,0.1664,0.1699,0.1708,0.1668,0.1668,0.163,0.1658,0.1656,0.1653,0,0.1098,0.1118,0.114,0.1167,0.1205,0.1328,0.1336,0.1426,0.1514,0.1469,0.168,0.1717,0.1722,0.1675,0.1671,0.1624,0,0,0,0.106,0.1075,0.1065,0.11,0.1122,0.1195,0.1331,0.1311,0.1511,0.1474,0.1587,0.1604,0.1761,0.1915,0.1876,0.187,0.1821,0,0]},{"header":{"parameterUnit":"m.s-1","parameterCategory":2,"la1":30.2992,"la2":30.254,"lo1":-89.0895,"lo2":-89.0443,"dy":0.0025,"dx":0.0025,"nx":19,"ny":19,"refTime":"2026-05-13T21:00:00:Z","depth":"4","parameterNumber":3,"parameterNumberName":"V-component_of_CURRENTS"},"data":[0,0,0,0.0269,0.0269,0.0283,0.0283,0.0278,0.0278,0,0,0,0,0,0,0,0,0,0,0,0.0262,0.0263,0.0269,0.0269,0.0283,0.0283,0.0278,0.0278,0,0,0,0,0,0,0,0,0,0,0,0.0262,0.0262,0.0263,0.0269,0.0283,0.0283,0.0278,0.0271,0,0,0,0,0,0,0,0,0,0,0.026,0.0264,0.0262,0.0263,0.027,0.0283,0.0283,0.0271,0.0272,0.0268,0,0.0276,0,0.0281,0.0278,0.0278,0,0,0,0.0261,0.0263,0.0266,0.0263,0.027,0.0283,0.0275,0.0272,0.0272,0.0268,0.0276,0.0276,0.0281,0.0278,0.0278,0.0309,0.0309,0,0,0.0261,0.0264,0.0265,0.0266,0.0281,0.0274,0.0275,0.0272,0.0276,0.0276,0.0276,0.0281,0.0278,0.0278,0.0309,0.0309,0,0,0,0.0264,0.0264,0.0266,0.0266,0.0273,0.0275,0.0276,0.0276,0.0277,0.0276,0.0281,0.0278,0.0278,0.0308,0.0309,0.0358,0,0,0,0.0263,0.0266,0.0266,0.0268,0.0273,0.0279,0.028,0.0277,0.0277,0.0281,0.0278,0.0278,0.0308,0.0309,0.0356,0.0388,0,0,0,0.026,0.0266,0.0269,0.0268,0.0278,0.028,0.028,0.0277,0.028,0.0278,0.0278,0.0308,0.0309,0.0354,0.0384,0.0404,0,0,0,0.026,0.0276,0.027,0.0295,0.0278,0.0304,0.028,0.0298,0.0301,0.0278,0.0308,0.0309,0.0353,0.0382,0.0401,0.04,0,0,0,0.028,0.0279,0.0295,0.029,0.0329,0.0301,0.0336,0.0328,0.031,0.0305,0.0306,0.0356,0.0384,0.0403,0.0449,0,0,0,0,0.0302,0.0318,0.0328,0.0351,0.0358,0.0375,0.0362,0.0352,0.0355,0.0317,0.036,0.0376,0.0386,0.0379,0.0313,0.0313,0.0313,0.0313,0.0313,0.0333,0.0346,0.0385,0.0406,0.0421,0.0426,0.043,0.0415,0.039,0.04,0.0418,0.0471,0.0466,0.0414,0.0414,0.0414,0.0415,0.0415,0.0415,0.0382,0.0409,0.0434,0.0479,0.0493,0.0521,0.0507,0.0491,0.0491,0.0463,0.0469,0.0434,0.042,0.0419,0.0418,0.0417,0.0417,0.0417,0.0417,0.0406,0.0422,0.0459,0.0526,0.0582,0.0596,0.0632,0.0604,0.0554,0.056,0.0545,0.0506,0.0499,0.0565,0.0566,0.0566,0.0566,0.0566,0.0566,0.0413,0.0449,0.0509,0.058,0.0639,0.0702,0.0713,0.0701,0.0651,0.0612,0.0584,0.0522,0.0517,0.0507,0.057,0.0569,0.0569,0.0569,0.0568,0.0439,0.0459,0.0546,0.0611,0.0741,0.0784,0.0803,0.0761,0.0744,0.0701,0.0626,0.0622,0.0604,0.0597,0.0589,0.0679,0.0679,0.0679,0,0.0451,0.0466,0.0585,0.0688,0.0788,0.0835,0.0836,0.0814,0.0733,0.0723,0.0729,0.0647,0.0642,0.0622,0.0616,0.0609,0,0,0,0.0472,0.0508,0.0587,0.0693,0.0812,0.0831,0.0837,0.081,0.0754,0.0726,0.0685,0.0684,0.0637,0.0581,0.0544,0.0538,0.0521,0,0]}]]